ATL-1 (44830 NORAD) Tracking and Keplerian Element Data

This shows tracking and keplerian element data for the satellite.

Feedback or suggestion? Click here.




ElementValue
Catalog44830
NameATL-1
Epoch Orbit4854
Epoch Day283.37625441
Epoch Year2020
RAAN155.2233
Inclination96.9282
Eccentricity0.0011473
Argument of Perigee239.981
Mean Anonmoly120.0357
Mean Motion16.46538413
Decay Rate0.14504533
L11 44830U 19084G 20283.37625441 .14504533 23319-5 28099-3 0 9997
L22 44830 96.9282 155.2233 0011473 239.9810 120.0357 16.46538413 48546



Live tracking and technical data element details for ATL-1 (NORAD 44830). ATL-1 can be tracked NOW for your location showing map with azimuth and elevation plus other details from your city location.







IsCatalogInMostPopularTable: catalog: 44830, numindb: 237
Update: records affected: 1



GetName: 44830 ATL-1

Hit Count: updated at: Mon, 28 Nov 2022 06:11:42 GMT